Orbital Elements
Epoch 2016 Nov. 28.0 TT = JDT 2457720.5
T 2016 Nov. 22.14573 TT MPCW
q 2.3019377 (2000.0) P Q
n 0.12773310 Peri. 4.55531 +0.97003657 -0.23174860
a 3.9048145 Node 9.81001 +0.20719015 +0.63224258
e 0.4104873 Incl. 25.35045 +0.12689086 +0.73929825
P 7.72
From 445 observations 2008 May 10-2017 Jan. 30, mean residual 0".8.
Nongravitational parameters A1 = +3.24, A2 = -1.8674.
|